Location: Mountain Lakes
(44.1215°N, 71.9554°W)
Time: 16:46:12
(UTC+00:00)

Cosmos 2278 Rocket - Pass Details

Date: 08 September 2024
Orbit: 839 x 846 km, 71.0° (Epoch: 12 October)

Event Time Altitude Azimuth Distance (km) Brightness Sun altitude
Rises 23:35:33 0° 344° (NNW) 3,409 5.8 -5.3°
Reaches altitude 10° 23:38:58 10° 5° (N) 2,471 4.8 -5.9°
Maximum altitude 23:42:32 17° 44° (NE) 2,030 3.9 -6.5°
Drops below altitude 10° 23:46:06 10° 84° (E) 2,467 4.0 -7.2°
Enters shadow 23:46:53 - 90° (E) 2,654 4.2 -7.3°
